Temperature
22 21 20 21 27 30 30 30 30 30 30 29 28 28 29 28 28 26 22 22 20 20 19 20 19 19 19 19 19 19 19 19 19 19 19 19 19 18 18 18 18 18 18 18 18 18 18 18 18
21 20 21 25 30 30 29 30 30 30 29 28 28 28 28 27 24 22 21 21 20 20 19 19 19 19 19 19 19 19 19 19 19 19 19 19 19 18 18 18 18 18 18 18 18 18 18 18 18
21 21 25 30 30 30 30 30 30 29 28 28 28 27 27 26 23 22 21 20 20 20 19 19 20 19 19 19 19 19 19 19 19 19 19 19 18 18 18 18 18 18 18 18 18 18 18 18 18
21 24 27 30 30 30 30 30 30 30 29 28 28 27 25 23 22 22 21 20 20 19 19 19 20 19 19 19 19 19 19 19 19 19 19 18 18 18 18 18 18 18 18 18 18 18 18 18 18
23 27 30 30 30 30 31 30 30 30 30 29 28 28 25 21 21 21 21 20 20 20 19 19 20 20 19 19 19 19 19 19 19 19 18 18 18 18 18 18 18 18 18 18 18 18 18 18 17
26 29 30 30 30 30 31 30 30 30 29 28 28 27 24 21 21 21 21 21 21 20 19 18 19 19 19 19 19 19 19 19 19 18 18 18 18 18 18 18 18 18 18 18 17 17 17 17 17
28 30 31 31 30 30 31 30 30 30 30 29 28 27 23 21 21 21 21 21 21 20 20 18 18 19 19 19 19 19 19 19 18 18 18 18 18 18 18 18 18 18 18 18 17 17 17 17 17
27 30 30 31 30 30 30 30 30 30 29 27 27 28 25 21 21 21 20 20 20 20 20 19 19 18 18 19 19 19 19 18 18 18 18 18 18 18 18 17 17 18 17 17 18 17 17 17 17
26 29 30 31 31 31 30 30 29 29 28 27 27 27 25 22 21 20 20 20 20 20 20 19 19 18 18 18 18 18 18 18 18 18 18 18 17 17 17 17 18 18 17 17 17 17 17 17 17
27 30 31 31 31 31 30 30 30 29 29 28 26 24 22 21 21 20 20 20 20 19 19 19 19 18 18 18 18 18 18 18 18 17 17 17 17 17 17 17 17 18 18 18 18 17 17 17 17
28 30 30 30 30 30 30 30 30 30 30 29 27 24 21 21 21 21 21 20 20 19 19 19 19 18 18 18 18 18 18 18 18 17 17 17 17 17 17 17 17 17 17 17 17 17 17 17 17
28 29 29 29 29 30 30 30 30 30 30 28 27 24 22 21 21 21 21 20 20 19 19 19 19 18 18 18 18 18 18 18 18 18 17 17 17 17 17 17 17 17 17 17 17 17 17 17 17
28 29 29 29 29 29 29 30 30 29 28 27 26 23 22 22 22 21 21 20 20 19 19 19 18 18 18 18 18 18 18 18 18 18 18 17 17 17 17 17 17 17 17 17 17 17 17 17 17
29 29 29 29 29 29 30 30 30 29 28 26 25 24 23 22 22 21 20 20 19 19 19 19 19 19 19 19 18 18 18 18 18 18 17 17 17 17 17 17 17 17 17 17 17 17 17 17 17
28 29 30 30 30 30 30 30 30 29 27 27 25 24 23 22 22 21 21 20 20 19 19 19 19 19 19 18 18 18 18 18 18 18 18 18 17 17 17 17 17 17 17 17 17 17 17 17 17
29 29 29 30 30 30 30 30 30 28 27 27 26 24 23 22 21 21 20 20 20 19 19 19 19 19 19 19 19 18 18 18 18 18 18 18 17 17 17 17 17 17 17 17 17 17 17 17 17
29 29 29 30 30 30 30 30 30 28 28 27 26 25 23 22 21 21 20 20 20 20 20 20 19 19 19 19 19 18 18 18 18 17 17 18 18 18 17 17 17 17 17 17 17 17 17 17 17
29 29 29 29 30 30 30 30 29 28 27 27 26 25 23 22 21 21 20 20 20 20 20 20 20 20 19 19 19 18 18 18 18 18 18 18 18 18 17 17 17 17 17 17 17 17 17 17 17
29 29 29 29 29 29 29 29 29 28 28 27 26 25 24 23 22 21 20 20 19 19 19 20 19 19 19 19 18 18 18 18 18 18 18 18 18 17 18 17 17 17 17 17 17 17 17 17 17
28 28 28 29 29 29 29 29 29 28 28 27 26 25 24 23 22 21 20 19 19 19 19 19 19 19 19 19 19 18 18 18 18 18 18 18 18 17 17 17 17 17 17 17 17 17 17 17 17
27 28 28 28 28 29 29 29 28 28 27 26 25 25 24 23 22 21 20 19 19 19 19 19 19 19 19 19 18 18 18 18 18 18 18 18 18 17 17 17 17 17 17 17 17 17 17 17 17
27 28 28 28 28 29 29 28 29 29 28 27 26 25 24 23 22 21 20 20 19 19 19 19 19 19 19 19 18 18 18 18 18 18 18 18 18 17 17 17 17 17 17 17 17 17 17 17 17
28 28 28 28 28 28 28 28 29 29 28 28 27 26 25 23 22 21 21 20 19 19 19 19 19 19 19 19 18 18 18 18 18 18 18 18 18 17 17 17 17 17 17 17 17 17 17 17 17
28 27 27 28 28 27 28 28 28 29 29 29 28 26 24 23 22 21 21 20 19 19 19 18 18 18 18 18 18 18 18 18 17 17 17 18 17 17 17 17 17 17 17 17 17 17 17 17 17
27 27 26 26 27 27 28 28 28 29 28 28 27 25 24 23 22 21 20 20 19 19 18 18 18 18 18 18 18 18 18 18 18 17 17 17 17 17 17 17 17 17 17 17 17 17 17 17 16
27 28 27 27 27 28 27 28 29 28 27 26 25 25 23 23 22 21 20 20 19 19 18 18 18 18 18 18 18 18 18 17 17 17 17 17 17 17 17 17 17 17 17 17 17 17 16 16 16
28 28 29 29 28 28 28 28 28 28 27 26 25 24 24 23 22 21 20 20 19 19 18 18 18 18 18 18 17 17 17 17 17 17 17 17 17 17 17 17 17 17 17 17 17 16 16 16 16
29 29 28 28 26 27 27 27 28 28 27 27 26 25 24 23 22 21 20 20 19 19 18 18 18 18 17 17 17 17 17 17 17 17 17 17 17 17 17 17 17 17 17 17 17 16 16 17 17
27 28 28 28 28 27 27 28 29 28 27 27 26 24 23 23 22 21 20 19 19 18 18 18 18 17 17 17 17 17 17 17 17 17 17 17 17 17 17 17 17 17 17 17 17 16 16 17 16
28 28 28 27 27 27 28 28 27 28 27 26 25 24 22 22 21 20 19 19 18 18 18 17 17 17 17 17 17 17 17 17 17 17 17 17 17 17 17 17 17 17 16 16 16 16 16 16 16
Wind_Speed
9 7 4 4 5 2 8 7 5 6 5 5 4 2 3 4 4 6 10 19 20 20 21 20 17 17 17 17 17 18 17 17 16 15 15 14 13 13 12 12 13 13 14 14 14 14 15 15 15
6 4 5 5 3 5 7 5 5 5 5 6 5 3 3 5 6 10 14 19 21 20 21 19 19 17 17 17 17 17 17 16 15 15 14 14 13 13 13 13 13 13 14 14 14 15 15 15 15
5 5 5 3 1 4 6 5 5 5 6 5 4 3 3 5 7 10 15 21 20 19 19 20 19 18 17 17 17 16 16 16 15 14 14 13 13 13 13 13 13 13 14 14 14 14 14 14 14
4 5 5 3 4 5 4 4 4 6 6 4 4 5 5 5 5 11 20 21 20 18 19 21 19 18 17 17 16 16 16 15 14 14 13 13 12 12 13 13 13 13 13 13 14 14 14 14 14
5 5 5 4 4 4 2 2 2 4 4 4 4 5 6 5 8 17 21 21 20 19 19 22 19 19 17 17 16 16 15 15 14 13 13 13 12 12 13 13 13 13 13 13 13 13 13 13 13
4 5 5 5 5 4 3 2 3 3 4 4 4 6 5 7 13 19 20 19 19 18 18 21 19 18 17 17 16 15 15 14 13 13 13 12 12 12 12 13 13 13 13 12 12 12 12 12 12
6 5 4 3 5 4 3 1 3 2 3 4 4 5 7 10 15 18 18 17 17 17 17 19 19 18 17 16 15 15 14 13 13 12 12 12 12 12 12 12 12 13 13 12 11 11 10 11 11
5 4 5 5 5 4 3 2 1 2 2 4 4 4 8 14 16 17 17 16 16 16 16 16 17 17 17 16 15 14 13 13 12 12 12 12 12 11 11 12 12 12 12 11 10 10 9 10 10
5 6 6 5 4 4 3 2 2 1 4 4 2 3 10 20 20 18 16 15 15 15 14 15 16 15 15 15 16 15 14 13 13 12 12 12 11 11 11 12 12 11 11 10 9 9 8 9 10
6 7 3 1 1 0 1 2 2 4 6 5 6 9 17 21 21 20 19 19 18 17 16 14 14 14 14 12 14 13 13 13 11 11 12 9 7 7 9 13 10 10 10 10 9 8 9 8 9
6 5 1 2 3 3 3 3 3 5 4 5 8 13 19 20 20 20 20 19 18 17 16 15 13 13 13 10 11 9 9 10 10 10 9 7 8 8 8 9 10 10 11 9 10 9 6 5 5
7 6 6 5 4 5 5 4 4 5 2 0 6 15 20 21 20 20 20 19 18 18 17 15 14 13 12 10 9 9 8 8 9 10 10 9 6 6 6 6 7 7 7 6 7 5 5 4 4
11 7 7 8 7 7 7 6 5 4 2 2 8 15 19 19 19 18 17 17 17 17 16 15 14 13 11 9 8 9 8 9 9 9 9 8 7 6 6 5 5 5 5 6 5 5 5 4 5
7 8 8 8 7 7 7 7 6 3 2 5 10 14 16 17 18 17 17 17 18 17 16 15 15 14 12 10 8 8 8 8 9 9 10 9 7 6 6 6 5 5 5 4 4 5 5 5 4
7 8 8 8 7 6 7 9 8 4 3 6 9 11 14 15 16 17 18 18 18 17 16 15 15 14 13 12 11 9 9 9 8 8 9 9 8 7 6 5 6 5 5 5 4 5 5 4 4
9 10 10 7 7 6 9 8 5 4 5 6 7 10 12 13 15 15 16 16 16 16 16 16 14 15 14 12 10 9 9 9 8 8 9 10 8 8 7 5 6 6 6 6 5 5 5 4 4
11 12 10 7 6 5 8 6 3 3 5 6 7 9 10 11 13 13 15 15 16 16 17 16 15 15 15 13 10 9 8 8 8 8 9 9 9 9 7 5 5 7 6 5 5 5 5 4 4
11 11 9 8 6 6 8 6 3 3 5 6 7 8 9 10 11 12 14 15 15 15 16 16 16 15 14 12 10 8 9 8 8 8 9 10 10 10 8 7 7 7 6 5 5 4 4 4 4
7 9 9 6 3 6 7 7 4 4 6 6 7 7 9 9 9 11 13 14 15 15 16 16 16 15 13 11 11 10 10 9 8 8 10 11 11 10 9 7 7 7 6 6 7 6 7 6 4
11 11 9 6 4 5 6 7 5 5 6 6 7 7 7 8 9 10 12 13 14 15 16 16 17 16 15 12 11 9 9 8 8 8 9 11 11 11 10 8 7 8 6 7 7 7 6 5 6
13 13 10 6 4 7 7 9 8 6 6 6 7 7 7 8 9 11 12 13 14 15 16 15 17 16 16 14 11 9 8 7 8 9 9 11 12 12 10 10 9 8 8 7 8 8 8 6 6
13 10 8 7 8 7 7 7 7 7 7 7 7 8 8 8 9 10 11 12 13 14 14 15 16 16 16 15 13 14 12 11 11 9 9 10 12 12 12 11 10 9 8 7 9 8 7 7 6
9 6 8 9 9 8 8 8 5 7 7 7 8 8 8 8 8 9 9 10 11 12 13 14 15 15 15 15 15 15 13 11 9 9 9 9 9 11 12 12 11 10 9 8 8 7 9 8 8
8 7 7 8 9 11 8 8 5 5 5 4 5 6 7 7 7 7 7 8 8 9 11 13 14 15 15 15 15 15 14 13 11 11 10 9 8 9 12 12 11 10 9 9 9 9 10 8 8
14 11 9 10 10 9 6 7 4 2 2 2 3 5 6 7 7 7 7 8 8 9 10 11 12 13 14 15 15 15 15 14 13 12 11 10 9 9 11 12 11 10 10 9 9 9 9 9 9
18 17 10 8 9 7 7 7 3 4 3 3 3 5 6 6 6 7 7 7 8 9 10 11 12 12 13 13 13 13 13 11 10 12 10 11 10 10 11 12 12 12 11 10 9 9 10 9 9
17 17 14 8 6 7 7 5 4 5 5 5 5 5 6 6 6 6 6 7 7 8 9 10 10 11 11 12 12 12 12 11 10 10 10 9 9 9 11 12 12 11 11 10 10 9 10 9 10
12 14 10 10 8 9 7 8 6 8 6 6 6 5 6 6 6 6 6 6 6 7 8 9 9 9 10 10 10 9 11 11 10 9 10 9 9 10 10 11 11 11 11 11 11 10 10 10 9
12 14 12 11 9 8 6 5 3 5 5 5 6 6 6 6 6 6 6 5 5 6 8 8 9 8 8 8 8 8 9 9 9 8 9 9 9 9 10 10 11 11 11 11 10 10 9 10 10
15 15 14 11 9 9 7 3 6 4 5 5 6 6 6 6 6 6 6 6 5 5 7 7 8 8 7 7 7 7 7 8 8 8 8 8 9 8 9 9 10 10 11 10 11 11 10 9 10
Wind_Direction
193 200 232 247 236 143 87 84 83 97 97 102 123 109 61 43 24 82 125 144 142 144 141 147 142 139 136 134 133 134 134 133 131 129 127 124 121 119 116 114 111 110 109 109 108 109 109 109 110
189 210 239 244 241 115 97 84 90 82 93 123 133 120 85 71 60 111 138 143 146 144 145 148 143 141 138 136 135 134 134 132 131 129 128 125 123 121 118 115 113 112 111 110 110 111 110 110 110
197 236 263 248 132 89 96 94 94 106 125 139 122 86 55 70 108 132 142 147 147 144 143 141 147 144 141 139 137 136 135 134 133 132 130 127 125 123 120 116 115 114 113 112 112 112 112 113 112
222 235 240 233 117 87 90 99 119 140 136 139 128 103 84 68 122 138 145 150 147 146 147 143 150 146 144 142 140 138 138 137 136 135 133 130 127 125 122 118 117 115 113 113 113 113 114 113 114
243 255 225 172 118 104 100 96 160 162 141 138 140 107 95 83 118 138 149 152 151 151 148 146 151 148 147 146 144 141 140 140 138 136 133 131 128 126 123 120 118 116 115 115 115 116 116 116 118
234 241 220 163 126 123 117 134 182 169 141 140 142 124 98 116 137 147 153 156 155 153 150 145 152 151 150 149 147 144 143 142 140 138 136 133 130 126 124 123 121 118 117 117 116 117 118 121 121
258 243 220 164 144 140 102 133 182 173 165 155 148 125 123 139 146 152 155 157 158 156 150 152 156 155 154 152 150 148 146 144 142 140 137 135 130 126 126 126 124 122 122 120 119 118 119 121 125
268 250 201 179 169 135 112 139 132 199 147 133 169 152 147 150 151 153 154 160 162 161 158 157 160 159 161 159 155 152 150 148 145 142 140 137 133 131 133 137 127 126 126 125 123 121 122 125 130
249 237 202 175 170 134 122 160 129 151 152 157 155 96 132 146 151 155 159 165 167 167 164 165 162 163 166 162 155 160 156 154 155 152 149 159 155 145 151 124 128 131 131 131 129 128 131 141 142
230 232 186 132 226 144 174 234 197 190 184 174 144 118 134 150 158 164 169 172 173 173 173 170 168 165 168 162 160 168 168 163 173 159 162 166 145 141 128 121 134 137 137 139 137 141 162 186 153
225 238 215 221 257 287 258 238 216 234 215 199 178 154 154 161 168 174 176 177 175 175 177 173 170 168 173 165 168 170 168 163 170 163 165 157 153 149 143 146 149 154 161 160 153 176 179 163 130
230 237 251 259 271 271 266 257 244 244 278 164 169 161 165 171 180 182 179 179 176 179 180 177 171 174 177 173 172 173 171 169 169 164 175 164 164 161 150 156 155 162 161 160 170 171 162 148 146
228 240 245 254 261 262 259 250 253 249 256 171 157 164 174 179 184 185 182 181 178 180 181 180 176 176 176 177 184 180 175 175 168 166 175 175 170 170 156 154 160 166 155 165 178 175 160 168 171
226 241 250 251 245 237 240 238 234 231 174 164 165 173 181 184 183 182 182 182 182 183 182 180 181 179 178 181 188 182 179 179 175 176 174 183 179 168 166 168 170 171 173 167 176 168 173 186 172
238 238 233 223 223 218 229 231 223 206 183 181 180 181 183 187 186 188 185 185 184 184 183 182 183 182 184 187 189 187 186 183 185 177 175 185 187 176 183 177 182 179 173 171 186 178 183 186 185
220 226 220 194 205 201 227 231 171 173 197 196 189 184 185 189 193 192 188 185 185 184 184 184 185 184 187 189 190 190 193 189 189 184 180 187 189 189 197 191 190 178 189 188 180 199 198 195 198
212 218 214 188 190 206 229 241 178 191 204 200 193 186 188 191 197 195 191 186 187 186 184 186 190 187 188 188 187 193 191 196 194 191 190 187 193 194 205 203 189 192 197 201 206 185 209 195 201
209 214 209 204 183 224 231 240 220 205 215 211 200 189 191 195 198 193 191 189 187 188 186 188 190 187 186 186 186 191 195 198 199 197 196 195 198 198 208 206 198 207 202 204 212 191 206 208 206
224 222 216 204 192 239 235 240 231 218 216 213 206 196 195 200 194 186 186 188 186 188 188 189 190 187 185 185 187 190 194 196 200 203 202 202 205 201 208 217 197 213 209 211 207 205 199 209 204
222 222 217 199 204 247 240 238 227 223 221 219 212 204 199 193 186 181 183 186 188 190 192 191 191 188 188 189 190 192 191 196 202 210 203 208 206 206 204 212 212 210 211 212 214 214 222 207 201
219 223 221 217 224 224 243 229 214 205 211 213 214 207 197 193 189 184 187 190 191 192 195 195 192 189 189 188 187 188 189 196 201 208 208 210 208 208 215 210 216 212 217 210 213 210 222 220 210
215 219 229 229 235 220 228 248 199 200 203 209 208 202 198 194 190 188 189 191 194 195 194 193 190 191 191 190 191 190 195 202 205 205 204 207 210 211 212 215 215 215 219 211 218 212 221 226 222
215 200 220 226 234 245 222 252 209 188 213 207 202 201 199 192 186 188 191 191 195 195 193 192 192 193 194 196 195 196 203 208 206 204 204 209 210 213 213 214 215 215 220 219 227 215 225 224 231
196 189 202 223 230 234 225 245 231 192 209 199 185 191 195 187 182 183 185 186 190 190 190 189 192 196 196 199 201 203 206 206 205 206 203 206 212 214 214 215 215 217 220 217 220 221 221 230 233
200 199 199 206 215 225 192 235 239 137 165 191 178 176 178 179 178 178 179 181 184 186 187 187 189 195 198 201 205 207 211 209 209 210 208 208 211 214 212 215 214 218 218 220 222 223 229 224 227
203 211 216 214 213 202 185 229 196 132 131 140 155 157 161 170 172 173 174 176 179 182 184 187 191 195 198 201 206 208 208 209 209 210 212 211 215 218 214 212 215 218 216 217 216 225 225 225 228
200 216 231 243 239 232 199 204 194 163 163 153 150 155 163 164 161 163 167 169 171 174 180 186 190 193 196 199 203 206 205 208 211 208 212 217 218 218 216 214 214 215 215 218 218 228 228 225 228
217 209 216 230 225 231 213 217 209 177 173 157 156 152 148 148 147 144 146 156 164 171 177 183 186 189 193 195 201 202 202 206 211 212 213 216 216 216 216 213 213 214 215 216 220 226 227 227 227
196 204 212 225 235 240 227 201 151 162 156 156 151 145 140 137 135 134 136 142 156 164 169 180 184 186 188 192 197 198 198 203 207 212 216 216 214 213 214 213 212 212 213 215 217 225 224 226 226
204 208 207 214 218 239 258 177 107 133 142 142 138 134 131 132 129 127 129 135 145 157 166 175 183 184 185 185 188 193 194 198 203 210 214 213 212 211 211 212 212 212 213 214 218 223 222 222 224
Height
1500 1500 1501 1502 1495 1487 1489 1487 1484 1487 1488 1492 1494 1494 1494 1496 1499 1509 1512 1513 1517 1521 1523 1525 1528 1531 1534 1536 1538 1540 1542 1544 1545 1546 1547 1549 1550 1551 1552 1553 1554 1554 1555 1556 1557 1558 1559 1560 1560
1502 1502 1503 1500 1488 1492 1494 1486 1487 1488 1491 1495 1496 1497 1497 1500 1505 1509 1511 1515 1519 1522 1525 1527 1530 1533 1535 1538 1540 1542 1544 1545 1547 1548 1550 1551 1552 1553 1554 1555 1556 1556 1557 1558 1559 1560 1561 1562 1563
1502 1503 1502 1490 1486 1490 1491 1487 1488 1491 1494 1495 1496 1498 1500 1504 1508 1511 1513 1516 1520 1524 1527 1528 1531 1534 1537 1539 1542 1544 1545 1547 1549 1550 1551 1553 1554 1555 1556 1557 1558 1558 1559 1560 1561 1562 1563 1564 1565
1504 1504 1499 1488 1488 1486 1486 1487 1489 1491 1494 1496 1497 1500 1505 1509 1510 1512 1513 1518 1522 1525 1528 1529 1533 1536 1538 1541 1543 1545 1547 1549 1550 1552 1553 1554 1555 1557 1558 1559 1560 1561 1562 1563 1564 1565 1566 1567 1568
1505 1500 1490 1487 1487 1486 1486 1489 1490 1489 1492 1495 1497 1500 1506 1510 1510 1512 1515 1520 1524 1527 1530 1531 1534 1537 1540 1542 1545 1547 1548 1550 1552 1553 1555 1556 1557 1558 1559 1560 1562 1563 1564 1565 1566 1567 1568 1569 1570
1503 1495 1489 1489 1488 1487 1487 1489 1490 1490 1493 1496 1498 1500 1508 1510 1512 1514 1518 1522 1526 1529 1532 1532 1535 1538 1541 1544 1546 1548 1550 1552 1553 1555 1556 1558 1559 1560 1561 1562 1563 1564 1566 1567 1568 1569 1570 1571 1572
1500 1490 1486 1486 1488 1487 1488 1490 1489 1490 1493 1496 1498 1501 1508 1511 1514 1516 1520 1524 1528 1531 1533 1534 1537 1539 1542 1545 1547 1549 1551 1553 1555 1556 1558 1559 1560 1562 1563 1564 1565 1566 1567 1569 1570 1571 1572 1573 1574
1500 1491 1486 1485 1487 1487 1488 1490 1491 1491 1494 1498 1499 1500 1506 1511 1513 1517 1521 1525 1529 1532 1534 1536 1539 1541 1544 1546 1548 1550 1552 1554 1556 1557 1559 1560 1562 1563 1564 1566 1567 1568 1569 1570 1571 1573 1574 1575 1576
1501 1493 1486 1484 1485 1485 1488 1489 1491 1493 1495 1498 1500 1501 1504 1507 1512 1517 1521 1525 1528 1532 1535 1537 1540 1542 1546 1548 1549 1551 1553 1555 1557 1558 1560 1562 1564 1566 1567 1568 1568 1569 1571 1572 1573 1574 1575 1576 1577
1498 1488 1484 1485 1485 1485 1488 1489 1490 1492 1493 1497 1500 1503 1504 1506 1510 1515 1519 1522 1526 1530 1534 1537 1540 1542 1546 1549 1550 1553 1555 1556 1558 1560 1561 1564 1565 1567 1568 1568 1569 1570 1572 1573 1574 1575 1577 1578 1580
1493 1488 1486 1488 1488 1488 1488 1488 1490 1489 1489 1493 1497 1501 1504 1507 1511 1514 1517 1521 1525 1528 1532 1536 1539 1541 1545 1548 1550 1553 1555 1556 1559 1560 1562 1564 1566 1567 1569 1570 1570 1572 1573 1575 1575 1577 1580 1581 1581
1492 1490 1491 1489 1489 1488 1487 1488 1488 1489 1490 1493 1496 1499 1502 1505 1509 1512 1515 1519 1523 1527 1530 1535 1538 1540 1544 1547 1550 1552 1555 1556 1559 1559 1562 1564 1566 1568 1570 1570 1572 1573 1575 1576 1577 1579 1580 1581 1582
1491 1489 1489 1489 1489 1488 1488 1487 1488 1488 1491 1493 1495 1498 1501 1503 1507 1512 1515 1519 1522 1525 1529 1532 1535 1539 1542 1545 1549 1552 1554 1557 1558 1560 1561 1564 1566 1568 1569 1570 1572 1574 1575 1576 1577 1579 1580 1581 1582
1488 1488 1487 1487 1486 1487 1486 1486 1487 1487 1491 1493 1495 1497 1500 1502 1506 1509 1512 1516 1519 1523 1527 1530 1533 1537 1540 1543 1547 1550 1553 1555 1558 1559 1561 1563 1566 1567 1569 1570 1571 1574 1575 1577 1577 1579 1580 1581 1582
1489 1487 1484 1483 1483 1484 1485 1484 1484 1487 1490 1491 1494 1496 1499 1501 1504 1506 1509 1512 1516 1520 1524 1528 1531 1535 1538 1542 1546 1549 1552 1554 1557 1559 1560 1562 1565 1566 1568 1570 1571 1573 1575 1575 1577 1578 1579 1580 1581
1485 1484 1483 1478 1480 1482 1485 1483 1481 1486 1488 1490 1492 1495 1498 1500 1503 1505 1508 1511 1514 1518 1521 1525 1529 1533 1536 1540 1544 1548 1551 1553 1555 1558 1559 1561 1563 1565 1567 1569 1571 1572 1574 1575 1576 1578 1579 1580 1581
1482 1482 1480 1479 1479 1479 1480 1479 1480 1485 1486 1488 1490 1493 1496 1498 1500 1502 1505 1508 1512 1515 1518 1522 1526 1530 1534 1538 1541 1545 1548 1551 1554 1556 1558 1560 1562 1564 1566 1568 1570 1571 1573 1574 1576 1577 1578 1579 1580
1480 1477 1479 1479 1477 1479 1479 1478 1479 1483 1485 1486 1488 1491 1494 1495 1497 1500 1502 1506 1509 1512 1516 1519 1524 1527 1531 1535 1539 1542 1545 1548 1551 1554 1556 1558 1560 1562 1564 1567 1568 1570 1572 1573 1574 1575 1576 1577 1578
1475 1477 1479 1477 1477 1479 1479 1478 1478 1481 1483 1484 1487 1489 1491 1493 1496 1498 1500 1503 1506 1509 1512 1516 1520 1524 1528 1532 1535 1539 1542 1545 1549 1551 1553 1555 1558 1560 1562 1565 1566 1568 1570 1571 1573 1574 1575 1576 1577
1478 1481 1479 1479 1478 1479 1478 1478 1477 1479 1481 1483 1485 1487 1490 1492 1494 1496 1498 1501 1503 1506 1509 1513 1516 1520 1524 1528 1532 1536 1540 1543 1546 1549 1550 1553 1555 1557 1560 1562 1564 1566 1567 1569 1570 1571 1574 1575 1576
1479 1479 1478 1479 1478 1477 1479 1479 1476 1477 1480 1482 1484 1486 1488 1490 1492 1494 1496 1498 1501 1503 1506 1509 1512 1516 1520 1525 1529 1533 1536 1539 1542 1545 1547 1550 1552 1555 1557 1559 1562 1563 1565 1567 1568 1569 1571 1573 1574
1480 1474 1476 1479 1482 1477 1478 1483 1473 1472 1475 1478 1481 1483 1486 1488 1490 1492 1494 1496 1498 1501 1504 1506 1509 1512 1517 1521 1524 1528 1531 1534 1537 1540 1544 1546 1549 1551 1554 1556 1558 1560 1562 1564 1565 1567 1568 1570 1571
1472 1473 1476 1476 1478 1478 1476 1480 1471 1469 1473 1473 1476 1480 1483 1486 1488 1490 1492 1494 1496 1499 1501 1503 1506 1509 1513 1517 1520 1524 1527 1530 1534 1537 1539 1542 1545 1548 1550 1552 1555 1556 1559 1560 1562 1564 1565 1567 1568
1471 1475 1476 1475 1475 1488 1477 1480 1475 1466 1469 1469 1473 1478 1481 1484 1487 1489 1491 1493 1495 1497 1499 1501 1503 1506 1510 1513 1517 1520 1523 1526 1529 1532 1534 1538 1541 1544 1546 1548 1550 1553 1555 1557 1558 1560 1562 1563 1565
1471 1477 1486 1489 1488 1483 1471 1477 1472 1464 1466 1469 1472 1476 1480 1482 1485 1487 1489 1491 1492 1494 1496 1499 1501 1504 1507 1510 1513 1516 1519 1521 1524 1526 1530 1533 1537 1539 1542 1544 1546 1549 1551 1553 1555 1556 1558 1560 1561
1467 1468 1479 1488 1486 1476 1476 1475 1465 1464 1468 1471 1474 1476 1479 1481 1483 1486 1487 1489 1491 1493 1495 1497 1499 1501 1504 1507 1509 1512 1515 1518 1520 1523 1526 1529 1532 1535 1538 1540 1542 1544 1547 1549 1551 1553 1555 1556 1557
1463 1463 1455 1464 1469 1475 1471 1468 1463 1464 1467 1470 1473 1475 1478 1480 1482 1484 1486 1488 1489 1491 1493 1495 1497 1499 1501 1504 1506 1509 1511 1514 1517 1520 1522 1525 1528 1531 1533 1535 1538 1540 1542 1545 1547 1549 1550 1552 1553
1452 1454 1461 1466 1480 1483 1475 1471 1465 1463 1465 1467 1471 1474 1477 1480 1482 1484 1485 1487 1488 1490 1492 1494 1495 1498 1500 1502 1504 1507 1509 1511 1514 1516 1519 1521 1524 1526 1529 1531 1533 1536 1538 1540 1542 1544 1546 1547 1548
1458 1458 1458 1460 1461 1475 1479 1470 1453 1458 1462 1465 1469 1474 1477 1479 1481 1483 1485 1487 1488 1489 1490 1492 1495 1497 1499 1500 1502 1505 1506 1508 1510 1513 1515 1518 1520 1522 1524 1526 1529 1531 1533 1536 1538 1540 1542 1543 1544
1449 1451 1455 1466 1470 1466 1467 1467 1456 1459 1462 1466 1470 1474 1477 1479 1481 1483 1485 1486 1487 1488 1490 1492 1494 1496 1497 1499 1500 1502 1503 1505 1507 1510 1512 1514 1516 1518 1520 1522 1524 1527 1530 1532 1534 1536 1537 1538 1540